• In Uzbekistan
  • List of Countries
  • For 7 days
  • Water Temperature
  • Satellite Maps
  • Weather Map
  • Weather Widgets
  • user-avatar
    Login

    Hourly Weather Hoszow

    Today, 25 April, Wednesday

    Time Temperature Precipitation Wind Pressure Humidity
    00:00 +12°C° 0 mm 1 mps 715 mmHg 81%
    01:00 +12°C° 0 mm 1 mps 715 mmHg 83%
    02:00 +12°C° 0 mm 2 mps 715 mmHg 84%
    03:00 +10°C° 0 mm 2 mps 715 mmHg 86%
    04:00 +10°C° 0 mm 2 mps 715 mmHg 89%
    05:00 +10°C° 0 mm 2 mps 715 mmHg 91%
    06:00 +12°C° 0 mm 2 mps 715 mmHg 87%
    07:00 +14°C° 0 mm 2 mps 715 mmHg 82%
    08:00 +15°C° 0 mm 2 mps 715 mmHg 76%
    09:00 +16°C° 0 mm 3 mps 715 mmHg 71%
    10:00 +18°C° 0 mm 3 mps 715 mmHg 66%
    11:00 +19°C° 0 mm 4 mps 715 mmHg 61%
    12:00 +20°C° 0 mm 5 mps 715 mmHg 58%
    13:00 +21°C° 0 mm 6 mps 714 mmHg 54%
    14:00 +22°C° 0 mm 6 mps 714 mmHg 51%
    15:00 +21°C° 0 mm 6 mps 713 mmHg 53%
    16:00 +21°C° 0 mm 6 mps 713 mmHg 55%
    17:00 +21°C° 0 mm 6 mps 712 mmHg 57%
    18:00 +20°C° 0.3 mm 5 mps 712 mmHg 63%
    19:00 +17°C° 0.3 mm 5 mps 712 mmHg 69%
    20:00 +16°C° 0.3 mm 5 mps 712 mmHg 75%
    21:00 +15°C° 0.3 mm 5 mps 712 mmHg 77%
    22:00 +15°C° 0.3 mm 4 mps 712 mmHg 79%
    23:00 +14°C° 0.3 mm 4 mps 713 mmHg 81%

    Tomorrow, 26 April, Thursday

    Time Temperature Precipitation Wind Pressure Humidity
    00:00 +13°C° 0.1 mm 3 mps 713 mmHg 84%
    01:00 +13°C° 0.1 mm 3 mps 713 mmHg 87%
    02:00 +13°C° 0.1 mm 2 mps 713 mmHg 90%
    03:00 +12°C° 0 mm 2 mps 713 mmHg 91%
    04:00 +12°C° 0 mm 2 mps 713 mmHg 91%
    05:00 +11°C° 0 mm 1 mps 713 mmHg 92%
    06:00 +12°C° 0.1 mm 1 mps 714 mmHg 89%
    07:00 +12°C° 0.1 mm 1 mps 714 mmHg 87%
    08:00 +12°C° 0.1 mm 1 mps 715 mmHg 85%
    09:00 +13°C° 0.1 mm 1 mps 715 mmHg 84%
    10:00 +13°C° 0.1 mm 1 mps 715 mmHg 84%
    11:00 +13°C° 0.1 mm 1 mps 715 mmHg 84%
    12:00 +13°C° 0.2 mm 1 mps 715 mmHg 83%
    13:00 +13°C° 0.2 mm 1 mps 714 mmHg 83%
    14:00 +13°C° 0.2 mm 1 mps 714 mmHg 82%
    15:00 +13°C° 0.4 mm 1 mps 714 mmHg 84%
    16:00 +13°C° 0.4 mm 1 mps 714 mmHg 86%
    17:00 +13°C° 0.4 mm 1 mps 714 mmHg 88%
    18:00 +12°C° 0.1 mm 1 mps 714 mmHg 89%
    19:00 +12°C° 0.1 mm 1 mps 715 mmHg 91%
    20:00 +11°C° 0.1 mm 1 mps 715 mmHg 92%
    21:00 +11°C° 0 mm 1 mps 715 mmHg 90%
    22:00 +9°C° 0 mm 2 mps 716 mmHg 89%
    23:00 +9°C° 0 mm 2 mps 716 mmHg 87%

    Day after tomorrow, 27 April, Friday

    Time Temperature Precipitation Wind Pressure Humidity
    00:00 +8°C° 0 mm 2 mps 716 mmHg 88%
    01:00 +7°C° 0 mm 2 mps 716 mmHg 89%
    02:00 +6°C° 0 mm 2 mps 716 mmHg 90%
    03:00 +6°C° 0 mm 2 mps 717 mmHg 91%
    04:00 +5°C° 0 mm 2 mps 717 mmHg 92%
    05:00 +5°C° 0 mm 1 mps 717 mmHg 92%
    06:00 +5°C° 0 mm 2 mps 717 mmHg 87%
    07:00 +7°C° 0 mm 2 mps 718 mmHg 81%
    08:00 +8°C° 0 mm 2 mps 718 mmHg 75%
    09:00 +10°C° 0 mm 2 mps 718 mmHg 66%
    10:00 +12°C° 0 mm 2 mps 719 mmHg 57%
    11:00 +14°C° 0 mm 2 mps 719 mmHg 48%
    12:00 +15°C° 0 mm 2 mps 719 mmHg 45%
    13:00 +16°C° 0 mm 2 mps 719 mmHg 42%
    14:00 +18°C° 0 mm 1 mps 719 mmHg 39%
    15:00 +16°C° 0 mm 1 mps 718 mmHg 40%
    16:00 +16°C° 0 mm 1 mps 718 mmHg 41%
    17:00 +16°C° 0 mm 1 mps 718 mmHg 42%
    18:00 +14°C° 0 mm 1 mps 718 mmHg 51%
    19:00 +12°C° 0 mm 1 mps 717 mmHg 59%
    20:00 +10°C° 0 mm 1 mps 717 mmHg 67%
    21:00 +8°C° 0 mm 2 mps 717 mmHg 70%
    22:00 +8°C° 0 mm 2 mps 718 mmHg 72%
    23:00 +7°C° 0 mm 2 mps 718 mmHg 75%

    28 April, Saturday

    Time Temperature Precipitation Wind Pressure Humidity
    00:00 +7°C° 0 mm 2 mps 717 mmHg 74%
    01:00 +6°C° 0 mm 2 mps 717 mmHg 74%
    02:00 +6°C° 0 mm 2 mps 717 mmHg 73%
    03:00 +6°C° 0 mm 2 mps 717 mmHg 72%
    04:00 +6°C° 0 mm 2 mps 716 mmHg 70%
    05:00 +6°C° 0 mm 2 mps 716 mmHg 68%
    06:00 +8°C° 0 mm 2 mps 716 mmHg 65%
    07:00 +10°C° 0 mm 2 mps 717 mmHg 61%
    08:00 +14°C° 0 mm 2 mps 717 mmHg 58%
    09:00 +16°C° 0 mm 3 mps 717 mmHg 54%
    10:00 +18°C° 0 mm 3 mps 717 mmHg 50%
    11:00 +20°C° 0 mm 4 mps 717 mmHg 47%
    12:00 +20°C° 0 mm 4 mps 717 mmHg 46%
    13:00 +21°C° 0 mm 4 mps 717 mmHg 46%
    14:00 +22°C° 0 mm 4 mps 717 mmHg 45%
    15:00 +22°C° 0 mm 4 mps 717 mmHg 48%
    16:00 +22°C° 0 mm 4 mps 717 mmHg 52%
    17:00 +21°C° 0 mm 4 mps 716 mmHg 55%
    18:00 +19°C° 0 mm 3 mps 716 mmHg 65%
    19:00 +17°C° 0 mm 3 mps 716 mmHg 75%
    20:00 +15°C° 0 mm 2 mps 716 mmHg 85%
    21:00 +15°C° 0 mm 2 mps 716 mmHg 88%
    22:00 +14°C° 0 mm 2 mps 717 mmHg 90%
    23:00 +14°C° 0 mm 2 mps 717 mmHg 93%

    29 April, Sunday

    Time Temperature Precipitation Wind Pressure Humidity
    00:00 +14°C° 0 mm 2 mps 717 mmHg 93%
    01:00 +13°C° 0 mm 1 mps 717 mmHg 93%
    02:00 +13°C° 0 mm 1 mps 717 mmHg 94%
    03:00 +13°C° 0.1 mm 1 mps 717 mmHg 94%
    04:00 +13°C° 0.1 mm 1 mps 717 mmHg 94%
    05:00 +13°C° 0.1 mm 1 mps 717 mmHg 94%
    06:00 +14°C° 0.1 mm 1 mps 717 mmHg 90%
    07:00 +16°C° 0.1 mm 1 mps 717 mmHg 86%
    08:00 +18°C° 0.1 mm 1 mps 718 mmHg 82%
    09:00 +20°C° 0.5 mm 1 mps 718 mmHg 77%
    10:00 +20°C° 0.5 mm 2 mps 718 mmHg 71%
    11:00 +21°C° 0.5 mm 2 mps 718 mmHg 66%
    12:00 +23°C° 0.6 mm 2 mps 717 mmHg 63%
    13:00 +24°C° 0.6 mm 2 mps 717 mmHg 59%
    14:00 +25°C° 0.6 mm 2 mps 717 mmHg 56%
    15:00 +24°C° 0.3 mm 2 mps 716 mmHg 58%
    16:00 +24°C° 0.3 mm 2 mps 716 mmHg 59%
    17:00 +24°C° 0.3 mm 2 mps 716 mmHg 61%
    18:00 +21°C° 0.4 mm 2 mps 716 mmHg 69%
    19:00 +19°C° 0.4 mm 2 mps 715 mmHg 78%
    20:00 +18°C° 0.4 mm 1 mps 715 mmHg 86%
    21:00 +16°C° 0 mm 1 mps 715 mmHg 87%
    22:00 +16°C° 0 mm 2 mps 715 mmHg 88%
    23:00 +15°C° 0 mm 2 mps 715 mmHg 89%

    30 April, Monday

    Time Temperature Precipitation Wind Pressure Humidity
    00:00 +14°C° 0 mm 2 mps 714 mmHg 88%
    01:00 +14°C° 0 mm 1 mps 714 mmHg 88%
    02:00 +14°C° 0 mm 1 mps 714 mmHg 87%
    03:00 +13°C° 0 mm 1 mps 714 mmHg 86%
    04:00 +13°C° 0 mm 1 mps 714 mmHg 85%
    05:00 +13°C° 0 mm 1 mps 714 mmHg 84%
    06:00 +15°C° 0 mm 1 mps 714 mmHg 79%
    07:00 +16°C° 0 mm 2 mps 714 mmHg 75%
    08:00 +18°C° 0 mm 2 mps 714 mmHg 70%
    09:00 +20°C° 0 mm 2 mps 714 mmHg 61%
    10:00 +23°C° 0 mm 2 mps 714 mmHg 52%
    11:00 +24°C° 0 mm 2 mps 714 mmHg 43%
    12:00 +25°C° 0 mm 2 mps 714 mmHg 41%
    13:00 +26°C° 0 mm 3 mps 714 mmHg 39%
    14:00 +26°C° 0 mm 3 mps 714 mmHg 37%
    15:00 +26°C° 0 mm 3 mps 713 mmHg 40%
    16:00 +26°C° 0 mm 3 mps 713 mmHg 43%
    17:00 +25°C° 0 mm 3 mps 713 mmHg 46%
    18:00 +23°C° 0 mm 2 mps 713 mmHg 55%
    19:00 +19°C° 0 mm 2 mps 712 mmHg 64%
    20:00 +17°C° 0 mm 2 mps 712 mmHg 72%
    21:00 +16°C° 0 mm 2 mps 712 mmHg 71%
    22:00 +15°C° 0 mm 2 mps 712 mmHg 71%
    23:00 +15°C° 0 mm 2 mps 712 mmHg 70%
    Show more